TimeEDT,TemperatureF,Dew PointF,Humidity,Sea Level PressureIn,VisibilityMPH,Wind Direction,Wind SpeedMPH,Gust SpeedMPH,PrecipitationIn,Events,Conditions,WindDirDegrees,DateUTC
12:53 AM,43.0,27.0,53,30.12,10.0,North,5.8,-,N/A,,Overcast,350,2013-03-29 04:53:00
1:53 AM,42.1,26.1,53,30.13,10.0,North,3.5,-,N/A,,Clear,350,2013-03-29 05:53:00
2:53 AM,39.9,26.1,58,30.13,10.0,NNW,3.5,-,N/A,,Clear,340,2013-03-29 06:53:00
3:53 AM,37.9,26.1,62,30.13,10.0,NW,3.5,-,N/A,,Clear,310,2013-03-29 07:53:00
4:53 AM,37.0,26.1,65,30.13,10.0,NW,4.6,-,N/A,,Clear,320,2013-03-29 08:53:00
5:53 AM,37.0,26.1,65,30.14,10.0,NW,6.9,-,N/A,,Clear,320,2013-03-29 09:53:00
6:53 AM,36.0,26.1,67,30.15,10.0,NW,4.6,-,N/A,,Clear,320,2013-03-29 10:53:00
7:53 AM,37.9,26.1,62,30.16,10.0,NW,6.9,-,N/A,,Clear,320,2013-03-29 11:53:00
8:53 AM,42.1,27.0,55,30.16,10.0,NNW,6.9,-,N/A,,Clear,330,2013-03-29 12:53:00
9:53 AM,46.0,26.1,46,30.16,10.0,NNW,10.4,-,N/A,,Clear,330,2013-03-29 13:53:00
10:53 AM,48.9,27.0,43,30.15,10.0,NW,10.4,-,N/A,,Clear,320,2013-03-29 14:53:00
11:53 AM,51.1,26.1,38,30.14,10.0,NW,11.5,17.3,N/A,,Scattered Clouds,320,2013-03-29 15:53:00
12:53 PM,51.1,25.0,36,30.11,10.0,NNW,11.5,18.4,N/A,,Scattered Clouds,330,2013-03-29 16:53:00
1:53 PM,53.1,25.0,34,30.09,10.0,NNW,11.5,19.6,N/A,,Mostly Cloudy,340,2013-03-29 17:53:00
2:53 PM,52.0,26.1,37,30.08,10.0,North,12.7,20.7,N/A,,Mostly Cloudy,350,2013-03-29 18:53:00
3:53 PM,52.0,26.1,37,30.07,10.0,NNW,11.5,-,N/A,,Overcast,330,2013-03-29 19:53:00
4:53 PM,51.1,27.0,39,30.07,10.0,North,12.7,-,N/A,,Overcast,350,2013-03-29 20:53:00
5:53 PM,51.1,27.0,39,30.08,10.0,North,9.2,17.3,N/A,,Mostly Cloudy,360,2013-03-29 21:53:00
6:53 PM,50.0,27.0,41,30.09,10.0,North,5.8,-,N/A,,Mostly Cloudy,360,2013-03-29 22:53:00
7:53 PM,46.9,28.9,50,30.10,10.0,NNW,4.6,-,N/A,,Clear,340,2013-03-29 23:53:00
8:53 PM,46.0,28.9,51,30.12,10.0,NNW,3.5,-,N/A,,Mostly Cloudy,330,2013-03-30 00:53:00
9:53 PM,46.9,28.9,50,30.13,10.0,North,8.1,-,N/A,,Overcast,350,2013-03-30 01:53:00
10:53 PM,46.0,28.9,51,30.14,10.0,North,6.9,-,N/A,,Overcast,350,2013-03-30 02:53:00
11:53 PM,43.0,28.9,58,30.14,10.0,NW,3.5,-,N/A,,Partly Cloudy,320,2013-03-30 03:53:00